Regional Weather Roundup
Issued by NWS

Home | Current Version | Previous Version | Graphics & Text | Print | Product List | Glossary On
Versions: 1 2 3 4 5 6 7 8 9 10 11 12 13 14 15 16 17 18 19 20 21 22 23 24 25 26 27 28 29 30 31 32 33 34 35 36 37 38 39 40 41 42 43 44 45 46 47 48 49 50
000
ASUS43 KDMX 201807
RWRIA

WEATHER ROUNDUP FOR IOWA
NATIONAL WEATHER SERVICE DES MOINES IA
100 PM CDT MON APR 20 2015

NOTE: "FAIR" INDICATES FEW OR NO CLOUDS BELOW 12,000 FEET WITH NO
SIGNIFICANT WEATHER AND/OR OBSTRUCTIONS TO VISIBILITY.

* - THESE STATIONS ARE NOT NWS STATIONS...THUS NOT UNDER NWS
QUALITY CONTROL.  THEY ALSO DO NOT REPORT WEATHER SUCH
AS PRECIPITATION OR FOG.

IAZ001>003-012>014-020>022-031>034-043>046-201900-
   NORTHWEST IOWA

CITY           SKY/WX    TMP DP  RH WIND       PRES   REMARKS
CARROLL *      MOSUNNY   50  30  46 NW29G39   29.69F
CHEROKEE *     SUNNY     49  20  32 NW20G32   29.70S
DENISON *      MOSUNNY   48  28  46 NW18G37   29.71F
LE MARS *      SUNNY     52  19  28 NW24G38   29.72F
ORANGE CITY *  SUNNY     48  21  34 NW31G40   29.69F
SHELDON *      SUNNY     48  21  34 NW29G44   29.66F
SIOUX CITY     SUNNY     53  26  35 NW28G36   29.73F
6HR MIN TEMP:  42; 6HR MAX TEMP:  53; 6HR PCP: TRACE;

SPENCER        PTSUNNY   48  28  46 NW26G37   29.65F
6HR MIN TEMP:  40; 6HR MAX TEMP:  51;

STORM LAKE *   MOSUNNY   48  23  37 NW29G38   29.69S
$$

IAZ055>058-069>071-079>083-090>094-201900-
   SOUTHWEST IOWA

CITY           SKY/WX    TMP DP  RH WIND       PRES   REMARKS
ATLANTIC *     PTSUNNY   50  30  46 W24G35    29.76S
AUDUBON *      MOSUNNY   50  30  46 NW15G28   29.74S
CLARINDA *     MOSUNNY   52  32  46 NW23G32   29.81F
COUNCIL BLFS * MOSUNNY   52  28  40 NW22G35   29.79S
CRESTON *      PTSUNNY   48  32  53 NW23G32   29.75S
HARLAN  *      MOSUNNY   50  30  46 NW24G37   29.79S
LAMONI         PTSUNNY   52  33  48 NW28G37   29.75F
6HR MIN TEMP:  42; 6HR MAX TEMP:  52;

RED OAK *      MOSUNNY   52  30  43 NW21G29   29.79S
SHENANDOAH *   MOSUNNY   52  30  43 NW20G32   29.82S
$$

IAZ047>049-059>061-072>074-084-201900-
   CENTRAL IOWA

CITY           SKY/WX    TMP DP  RH WIND       PRES   REMARKS
AMES           CLOUDY    48  33  56 NW22G31   29.66F
6HR MIN TEMP:  40; 6HR MAX TEMP:  48; 6HR PCP:  0.03;

ANKENY *       CLOUDY    50  32  50 NW23G33   29.67F
CHARITON *     CLOUDY    50  34  53 W20G29    29.71F
DES MOINES     CLOUDY    49  30  48 NW20G32   29.69F
6HR MIN TEMP:  42; 6HR MAX TEMP:  51; 6HR PCP: TRACE;

GRINNELL*      CLOUDY    46  36  66 W22G29    29.66S
KNOXVILLE *    CLOUDY    50  32  50 NW23      29.67F
MARSHALLTOWN   CLOUDY    46  37  71 W23G31    29.63S
6HR MIN TEMP:  40; 6HR MAX TEMP:  46; 6HR PCP: TRACE;

PELLA *        PTSUNNY   48  35  60 W21G30    29.69S
PERRY *        PTSUNNY   48  34  57 NW24G36   29.69F
$$

IAZ004>006-015-016-023>025-035-036-201900-
   NORTH CENTRAL IOWA

CITY           SKY/WX    TMP DP  RH WIND       PRES   REMARKS
ALGONA *       PTSUNNY   45  34  65 NW20G25   29.64S
CLARION *      PTSUNNY   43  39  87 NW23G30   29.63S
ESTHERVILLE    CLOUDY    45  32  60 NW28G37   29.62F
6HR MIN TEMP:  36; 6HR MAX TEMP:  46; 6HR PCP:  0.01;

FORT DODGE *   CLOUDY    46  32  57 NW16G29   29.66S
MASON CITY     CLOUDY    44  32  62 NW23G37   29.61R
6HR MIN TEMP:  37; 6HR MAX TEMP:  44;

FOREST CITY *  CLOUDY    39  32  75 NW22G31   29.61S WCI  29
IOWA FALLS *   LGT RAIN  41  36  81 NW25G39   29.64S
$$

IAZ007>011-017>019-026>030-037>042-050>054-066-201900-
   NORTHEAST IOWA

CITY           SKY/WX    TMP DP  RH WIND       PRES   REMARKS
CEDAR RAPIDS   CLOUDY    46  34  62 NW28G38   29.59R
6HR MIN TEMP:  40; 6HR MAX TEMP:  48;

CHARLES CITY * CLOUDY    43  32  65 NW29G38   29.57S
CLINTON *      CLOUDY    46  36  66 NW29G35   29.56S
DECORAH *      CLOUDY    39  32  75 W17G28    29.51S WCI  30
DUBUQUE        CLOUDY    42  32  67 W26       29.51S
6HR MIN TEMP:  41; 6HR MAX TEMP:  43;

MONTICELLO *   CLOUDY    45  34  65 NW24G37   29.54R
OELWEIN *      CLOUDY    43  32  65 NW30G39   29.56R
WATERLOO       CLOUDY    43  31  62 NW21G31   29.59R
6HR MIN TEMP:  40; 6HR MAX TEMP:  46;

$$

IAZ064-065-067-068-078-201900-
   EAST CENTRAL IOWA

CITY           SKY/WX    TMP DP  RH WIND       PRES   REMARKS
DAVENPORT      CLOUDY    46  32  58 W30G40    29.56R
6HR MIN TEMP:  43; 6HR MAX TEMP:  48;

IOWA CITY      CLOUDY    47  32  56 NW23G38   29.62R
6HR MIN TEMP:  43; 6HR MAX TEMP:  50;

MT. PLEASANT * CLOUDY    48  35  61 W16G26    29.65S
MUSCATINE *    CLOUDY    48  32  53 W30G39    29.61S
QUAD CITIES    CLOUDY    48  31  51 W25G39    29.55S
6HR MIN TEMP:  45; 6HR MAX TEMP:  51;

$$

IAZ062-063-075>077-085>089-095>099-201900-
   SOUTHEAST IOWA

CITY           SKY/WX    TMP DP  RH WIND       PRES   REMARKS
BURLINGTON     CLOUDY    48  34  58 W22G33    29.64R
6HR MIN TEMP:  45; 6HR MAX TEMP:  50; 6HR PCP:  0.01;

FAIRFIELD *    CLOUDY    46  34  61 NW22G33   29.67R
FORT MADISON * CLOUDY    48  36  61 W24G36    29.67R
KEOKUK *       CLOUDY    50  34  53 W18G28    29.67R
OSKALOOSA *    CLOUDY    46  33  60 NW24G35   29.68R
CENTERVILLE *  SUNNY     48  36  61 W21G31    29.73S
OTTUMWA        CLOUDY    47  31  53 NW20G29   29.68R
6HR MIN TEMP:  43; 6HR MAX TEMP:  50; 6HR PCP: TRACE;

WASHINGTON *   CLOUDY    46  36  66 NW26G38   29.64S
$$

ABBREVIATIONS USED IN REMARKS
   TC - TEMPERATURES IN CELSIUS
  WCI - WIND CHILL INDEX
   HX - HEAT INDEX
  VSB - VISIBILITY
$$




USA.gov is the U.S. government's official web portal to all federal, state and local government web resources and services.